Yatton Keynell, United Kingdom

12:31 PM GMT on March 24, 2019 (GMT +0000)
Yatton Keynell

Weather History for 03740 - June, 2009

Change the Weather History Date:

Friday, June 19, 2009

  Actual Average Record
Temperature  
Mean Temperature 56 °F -  
Max Temperature 64 °F 68 °F - ()
Min Temperature 48 °F 52 °F - ()
Degree Days  
Heating Degree Days 9    
Growing Degree Days 6 (Base 50)    
Moisture  
Dew Point 46 °F    
Average Humidity 70    
Maximum Humidity 94    
Minimum Humidity 41    
Precipitation  
Precipitation 0.00 in 0.07 in - ()
Sea Level Pressure  
Sea Level Pressure 30.17 in    
Wind  
Wind Speed 10 mph ()    
Max Wind Speed 16 mph    
Max Gust Speed -    
Visibility 8.1 miles    
Events      
T = Trace of Precipitation, MM = Missing Value Source: Averaged Metar Reports

Daily Weather History Graph

Daily Weather History Graph

Search for Another Location

Airport or City:

Astronomy

Jun. 19, 2009 Rise Set
Actual Time 4:50 AM BST 9:28 PM BST
Civil Twilight 4:02 AM BST 10:16 PM BST
Nautical Twilight 2:47 AM BST 11:30 PM BST
Astronomical Twilight 1:41 AM BST 12:36 AM BST
Moon 1:48 AM BST (6/19) 5:57 PM BST (6/19)
Length of Visible Light 18h 13m
Length of Day
16h 38m
Waning Crescent, 16% of the Moon is Illuminated
Jun 19
Waning Crescent
Jun 22
New
Jun 29
First Quarter
Jul 7
Full
Jul 15
Last Quarter

Hourly Weather History & Observations

Time (BST) Temp. Dew Point Humidity Pressure Visibility Wind Dir Wind Speed Gust Speed Precip Events Conditions
12:50 AM 51 °F 48 °F 87% 30.09 in 16 mi SW 11.5 mph - -   Scattered Clouds
12:50 AM 50.0 °F 48.2 °F 94% 30.06 in - SW 11.5 mph - N/A   Clear
1:50 AM 50.0 °F 48.2 °F 94% 30.06 in 6.2 mi SW 8.1 mph - N/A   Partly Cloudy
2:50 AM 50.0 °F 48.2 °F 94% 30.06 in 6.2 mi WSW 11.5 mph - N/A   Scattered Clouds
3:50 AM 49 °F 47 °F 90% 30.10 in 19 mi West 9.2 mph - -   Clear
3:50 AM 48.2 °F 46.4 °F 93% 30.09 in - West 9.2 mph - N/A   Clear
4:50 AM 50.0 °F 46.4 °F 87% 30.09 in - West 11.5 mph - N/A   Clear
5:50 AM 48.2 °F 44.6 °F 87% 30.09 in 6.2 mi West 8.1 mph - N/A   Partly Cloudy
6:50 AM 50 °F 46 °F 81% 30.14 in 19 mi WSW 8.1 mph - -   Scattered Clouds
6:50 AM 50.0 °F 46.4 °F 87% 30.12 in 6.2 mi WSW 8.1 mph - N/A   Partly Cloudy
7:50 AM 53.6 °F 46.4 °F 77% 30.12 in 6.2 mi West 12.7 mph - N/A   Partly Cloudy
8:50 AM 55.4 °F 44.6 °F 67% 30.15 in 6.2 mi West 15.0 mph - N/A   Partly Cloudy
9:50 AM 58 °F 45 °F 53% 30.19 in 25 mi West 12.7 mph - -   Mostly Cloudy
9:50 AM 57.2 °F 44.6 °F 63% 30.18 in 6.2 mi West 12.7 mph - N/A   Mostly Cloudy
10:50 AM 59.0 °F 42.8 °F 55% 30.18 in 6.2 mi WNW 15.0 mph - N/A   Mostly Cloudy
11:50 AM 59.0 °F 44.6 °F 59% 30.18 in 6.2 mi West 12.7 mph - N/A   Mostly Cloudy
12:50 PM 60 °F 43 °F 43% 30.20 in 25 mi WNW 16.1 mph - -   Mostly Cloudy
12:50 PM 60.8 °F 42.8 °F 52% 30.18 in 6.2 mi WNW 16.1 mph - N/A   Mostly Cloudy
1:50 PM 60.8 °F 42.8 °F 52% 30.21 in 6.2 mi West 15.0 mph - N/A   Mostly Cloudy
2:50 PM 60.8 °F 42.8 °F 52% 30.21 in 6.2 mi WNW 16.1 mph - N/A   Mostly Cloudy
3:50 PM 61 °F 43 °F 41% 30.22 in 25 mi WNW 15.0 mph - -   Mostly Cloudy
3:50 PM 60.8 °F 42.8 °F 52% 30.21 in 6.2 mi WNW 15.0 mph - N/A   Mostly Cloudy
4:50 PM 60.8 °F 42.8 °F 52% 30.21 in 6.2 mi WNW 13.8 mph - N/A   Mostly Cloudy
5:50 PM 59.0 °F 42.8 °F 55% 30.21 in 6.2 mi WNW 12.7 mph - N/A   Mostly Cloudy
6:50 PM 59 °F 44 °F 47% 30.22 in 25 mi West 10.4 mph - -   Mostly Cloudy
6:50 PM 59.0 °F 44.6 °F 59% 30.21 in 6.2 mi West 10.4 mph - N/A   Mostly Cloudy
7:50 PM 59.0 °F 48.2 °F 67% 30.21 in 6.2 mi West 12.7 mph - N/A   Scattered Clouds
8:50 PM 57.2 °F 50.0 °F 77% 30.24 in 6.2 mi West 9.2 mph - N/A   Scattered Clouds
9:50 PM 55 °F 50 °F 76% 30.27 in 19 mi West 8.1 mph - -   Partly Cloudy
9:50 PM 55.4 °F 50.0 °F 82% 30.24 in 6.2 mi West 8.1 mph - N/A   Scattered Clouds
10:50 PM 51.8 °F 46.4 °F 82% 30.27 in 6.2 mi West 6.9 mph - N/A   Scattered Clouds
11:50 PM 51.8 °F 44.6 °F 76% 30.27 in 6.2 mi West 9.2 mph - N/A   Mostly Cloudy